Orbital elements:
2003 FG
Epoch 2005 Jan. 30.0 TT = JDT 2453400.5                 MPC
M  76.76431              (2000.0)            P               Q
n   0.71254941     Peri.  312.75267     +0.76147322     +0.64732833
a   1.2414409      Node     7.14160     -0.48747781     +0.60599979
e   0.7150513      Incl.   15.64872     -0.42722817     +0.46230973
P   1.38           H   19.7           G   0.15           U   3
Residuals in seconds of arc
030313 608  0.4+  0.1-    030329 355  0.4-  0.3+    030403 428  0.0   0.1+
030313 608  0.4+  0.4+    030329 300  0.0   0.0     030403 428  0.2-  0.1+
030313 608  0.3+  0.5+    030329 300  1.5-  1.4+    030403 428  0.4-  0.1+
030323 333  1.1-  0.0     030329 300 (1.1+  3.1+)   030403 938  0.1-  0.0
030323 333  0.8-  0.2-    030329 300 (0.9-  2.3+)   030403 938  0.1+  0.0
030323 333  1.5-  0.3-    030329 300  0.1+  1.6+    030403 938  0.1-  1.1+
030323 333  0.4-  0.4-    030329 300  0.0   0.6+    030403 938  0.2-  1.4-
030323 246  0.3+  0.5+    030330 734  0.3-  0.5+    030403 938  1.0-  0.5-
030323 246  0.3+  0.5+    030330 734  0.4-  0.2+    030403 938  1.0-  0.8-
030323 246  0.4+  0.4+    030330 734  0.1+  0.3+    030403 938  0.8-  1.1-
030323 246  0.6+  0.5+    030330 734  0.2-  0.2+    030403 938  0.7-  0.4+
030323 246  0.1+  0.4+    030330 734  0.4-  0.3+    030403 938  0.8-  0.3-
030323 246  0.1+  0.4+    030330 734  0.6-  0.4+    030403 938  0.7+  1.1+
030323 587  0.1-  0.3-    030330 734  0.3-  0.3+    030403 170  0.2-  0.0
030323 587  0.3+  0.1+    030330 734  0.5-  0.2+    030403 170  0.3-  0.1-
030323 620  0.1-  0.2-    030330 734  0.4-  0.4+    030403 170  0.4-  0.1-
030323 587  0.1+  0.1-    030330 734  0.5-  0.3+    030403 938  0.2-  0.4-
030323 620  0.5+  0.1+    030330 750  1.0-  0.1+    030403 938  0.4-  0.5-
030323 620  0.3+  0.1+    030330 750  0.2+  0.5-    030403 938  0.6+  0.9+
030323 151  0.5+  0.4-    030330 750  0.3-  0.0     030403 938  0.0   0.4-
030323 151  0.5+  0.6+    030330 750  0.2-  0.2+    030403 938  0.4+  1.2+
030323 151  0.2-  1.0+    030330 750  1.0-  0.1+    030403 938  0.3-  0.2-
030323 151  0.7+  0.9-    030330 750  0.6-  0.3+    030404 333  0.4+  0.4+
030323 048  0.7-  0.4-    030330 750  0.3+  0.4+    030404 333  0.3-  0.5+
030323 048  0.1-  0.1+    030330 750  0.4-  0.3+    030404 333  0.1+  0.4+
030323 048  0.7-  0.3+    030330 750  0.1-  0.4+    030404 333  0.4+  0.7+
030323 048  0.1-  0.4-    030330 750  0.4-  0.4+    030404 333  0.6+  0.2+
030323 048  0.2+  0.5-    030330 750  0.2-  0.2+    030404 333  0.6-  0.1+
030323 048  0.0   0.1+    030330 750  0.3-  0.1-    030404 333  0.4+  0.2+
030323 048  0.0   0.1-    030330 750  0.1+  0.4+    030404 333  0.3-  0.5-
030323 048  0.0   0.1-    030330 750  0.7-  0.0     030404 333  0.2+  0.3-
030323 048  0.5-  0.1+    030330 300  0.7-  0.2+    030404 333  0.1+  0.1-
030323 048  0.1+  0.0     030330 300  0.6+  0.0     030404 333  0.1+  0.1-
030324 636  0.1-  0.1-    030330 300  0.4-  1.1+    030404 333  0.0   0.1-
030324 106  0.4+  0.0     030330 300  0.5+  0.6+    030404 333  0.3-  0.1-
030324 636  0.4+  0.6+    030331 333  0.3-  0.2-    030404 333  0.2+  0.0
030324 636  0.9+  1.2+    030331 333  0.4-  0.4-    030404 333  0.1-  0.3+
030324 636 (2.1+  4.4+)   030331 333  0.1-  0.6-    030404 333  0.7+  0.4+
030324 106  0.2+  0.0     030331 333  0.1-  0.2-    030404 333  0.8-  0.4+
030324 106  0.3+  0.1+    030331 333  0.3-  0.3-    030404 333  0.6+  0.1-
030324 106  0.0   0.3+    030331 333  0.3-  0.3-    030404 333  0.2+  0.2+
030324 113  0.5+  0.3+    030331 333  0.3-  0.3-    030404 333  0.6+  0.4+
030324 113  0.3+  0.6+    030331 333  1.7-  0.6-    030404 333  0.1-  0.6+
030324 113  0.4+  0.2+    030331 699  0.1-  0.2-    030404 333  0.6+  0.2-
030324 557  0.2+  0.1-    030331 699  0.3-  0.2-    030404 333  0.6+  0.1+
030324 557  0.3+  0.1-    030331 699  0.3-  0.3-    030404 333  0.6+  0.6+
030324 557  0.3+  0.0     030331 699  0.3-  0.1-    030404 333  0.4+  0.1-
030324 557  0.3+  0.1-    030331 151 (2.1-  0.1-)   030404 333  0.5+  1.9+
030324 557  0.1+  0.1-    030331 151  1.0-  0.4-    030404 333  0.4+  0.3+
030324 809  0.3+  0.0     030331 151  1.3-  0.4-    030404 333  0.1+  0.2+
030324 809  0.7+  0.2+    030331 151  0.3-  0.8-    030404 333  1.1+  0.3+
030324 809  0.5+  0.1+    030331 151  1.3-  0.2-    030404 333  0.4-  0.1-
030324 854  0.2+  0.0     030331 151  0.4-  0.1+    030404 333  0.2+  0.3+
030324 854  0.9-  0.0     030331 151  1.3-  0.0     030404 333  0.3-  0.2-
030324 854  0.4+  0.8+    030331 151  0.2-  0.4-    030404 333  0.6+  0.2+
030324 734  0.1+  0.3-    030331 151  0.7-  0.8-    030404 333  0.1-  0.3+
030324 734  0.0   0.1-    030331 151  1.1-  0.3+    030404 333  0.1+  0.0
030324 734  0.0   0.2-    030401 H72  0.4-  0.0     030404 333  0.1+  0.2-
030324 734  0.4-  0.2-    030401 H72  0.0   0.3+    030404 333  0.1+  0.0
030324 734  0.1-  0.5-    030401 H72  0.5-  0.3+    030404 333  0.3+  0.2-
030324 448  0.2+  0.1-    030401 H72  0.4+  0.0     030404 333  0.4+  0.2-
030324 448  0.2+  0.1-    030401 H72  0.5-  0.3+    030404 333  0.3+  0.3-
030324 448  0.5+  0.2-    030401 H72  0.8+  0.2+    030404 333  0.1+  0.2-
030324 413  0.1-  0.3-    030401 H72  1.0+  0.3+    030405 333  0.1-  0.3-
030324 413  0.0   0.2-    030401 H72  0.7+  0.3+    030405 333  0.5+  0.0
030324 413  0.2-  0.3-    030401 H72  0.2+  0.1-    030405 333  0.5+  0.1-
030324 557  0.1+  0.0     030401 H72  0.3+  0.3+    030405 333  0.5+  0.2-
030324 204  0.1+  0.2+    030401 H72  0.2-  0.5+    030405 333  0.1+  0.2-
030324 204  0.0   0.1+    030401 H72  0.8-  0.5-    030405 333  0.6+  0.0
030324 204  0.3+  0.0     030401 H72  0.4-  0.1+    030405 333  0.2+  0.0
030324 557  0.1-  0.2-    030401 H72  1.9-  0.3-    030405 428  0.3+  0.1-
030324 204  0.0   0.0     030401 750  0.1+  0.2+    030405 428  0.1-  0.4-
030324 204  0.2-  0.0     030401 750  0.3+  0.0     030405 428  0.5-  0.0
030324 204  0.0   0.1-    030401 750  0.2+  0.3-    030405 428  0.2-  0.0
030324 204  0.1-  0.0     030401 750  0.5+  0.2+    030405 300  0.1+  0.4+
030324 204  0.1-  0.3+    030401 750  0.5-  0.3-    030405 300  0.2+  0.4+
030324 204  0.5+  0.2-    030401 750  0.2-  0.2+    030405 300  0.2-  0.5+
030325 557  0.2+  0.0     030401 E14  1.2-  0.5-    030405 300  0.3-  0.6+
030325 557  0.1+  0.2+    030401 E14  0.0   0.0     030405 E14  1.1-  0.6-
030325 557  0.3+  0.1-    030401 E14  0.2+  0.3+    030405 E14  0.9-  0.1-
030325 557  1.0+  0.1+    030401 E14  0.1+  0.0     030405 E14  1.8-  0.4-
030325 557  0.7+  0.3+    030401 E14  1.7+  0.5+    030405 176  1.2-  0.4-
030325 333  0.2+  0.1-    030401 428  0.1+  0.2-    030405 176  1.2-  0.4-
030325 333  0.1+  0.0     030401 428  0.0   0.3-    030405 176  1.1-  0.3-
030325 333  0.3+  0.3-    030401 428  0.2+  0.2-    030405 176  1.1-  0.3-
030325 379  0.6+  0.8-    030401 428  0.1-  0.3-    030405 176  1.1-  0.3-
030325 379  0.6-  0.4-    030401 938  0.0   0.2-    030405 176  0.7-  0.3-
030325 379  0.4-  0.3+    030401 938  0.1-  0.5-    030405 176  0.7-  0.3-
030325 379  0.1-  0.1-    030401 938  0.3+  0.3+    030405 176  0.6-  0.3-
030325 557  0.3+  0.2-    030401 938  0.2-  0.4-    030406 333  0.7+  0.4-
030325 151  0.2-  0.5-    030401 938  0.5+  1.2+    030406 333  0.3-  0.5-
030325 151  0.3+  0.1-    030401 938  0.1-  0.2+    030406 333  0.6+  0.4-
030325 151  0.1-  0.1+    030401 938  0.0   0.1+    030406 333  0.5+  0.1+
030325 151  0.2+  0.0     030401 938  0.1+  1.1-    030406 333  0.8+  0.3-
030325 151  0.1-  0.4+    030401 938  1.3+  0.3-    030406 333  0.3-  0.7-
030325 557  0.1-  0.2+    030401 938  0.4+  0.1-    030406 333  0.2+  0.2-
030325 151  0.7+  0.5-    030401 938  0.3-  0.2-    030406 333  0.2+  0.0
030325 151  0.2+  0.3+    030401 938  1.3+  1.1-    030406 333  0.4+  0.1-
030325 151  0.2-  0.1-    030401 938  1.0+  0.7+    030406 333  0.4+  0.1+
030325 151  0.1-  0.0     030401 938  0.7-  0.1-    030406 333  0.8+  0.5+
030325 151  0.4-  0.7-    030401 938  0.6+  0.2+    030406 333  0.2-  0.2+
030325 557  0.2-  0.2-    030401 938  0.6+  0.3-    030406 333  0.0   0.2-
030326 557  0.1-  0.3-    030401 938  0.8+  0.1-    030406 333  0.5+  0.2+
030326 557  0.3+  0.2-    030401 938  0.1-  0.2+    030406 704  0.0   0.1-
030326 557  0.3+  0.2-    030401 938  1.0+  0.7-    030406 704  0.2-  0.2-
030326 670  0.4+  0.2-    030401 938  0.8+  0.3-    030406 704  0.1+  0.2+
030326 670  0.2+  0.2-    030401 938  0.4-  0.4+    030406 704  0.2-  0.1-
030326 670  0.3+  0.5-    030401 938  0.9-  0.2+    030406 704  0.0   0.1-
030326 379  0.1-  0.2+    030401 938  0.7-  0.2+    030406 379  0.0   0.0
030326 379  1.2+  0.7-    030401 938  0.0   0.6+    030406 379  0.8+  0.6-
030326 557  0.3-  0.4-    030401 938  0.7-  0.2-    030406 379  0.6-  0.5-
030326 557  0.8-  0.6-    030401 938  0.2+  0.2-    030406 379  0.4-  0.4-
030326 557  0.2-  0.9-    030401 938  0.3-  0.6+    030406 379  0.5+  0.1+
030327 246  0.4+  0.3+    030401 938  0.4+  0.5-    030406 379  0.0   0.6-
030327 599  0.7-  0.4-    030401 938  1.2+  0.1+    030406 379  0.2+  1.1-
030327 246  0.3+  0.0     030401 938  0.1+  0.1-    030406 379  0.2-  0.4+
030327 246  0.6+  0.1+    030401 938  0.3+  0.2-    030406 379  0.4+  0.6+
030327 246  0.2+  0.0     030401 938  0.5+  0.5-    030406 379  0.7-  0.5+
030327 246  0.3+  0.2+    030401 938  0.3-  0.8+    030406 300  0.9-  0.3+
030327 246  0.6+  0.2+    030402 938  0.2+  0.9-    030406 300  0.2-  0.8+
030327 557  0.8-  0.3-    030402 938  0.3-  0.2-    030406 300  1.2-  0.1-
030327 599  0.5-  0.2-    030402 938  0.6-  0.4+    030406 300  1.2-  0.7+
030327 557  0.8-  0.5-    030402 938  0.4+  1.1+    030406 300  0.1+  0.7-
030327 599  0.7-  0.3-    030402 938  0.2-  0.2+    030406 170  0.1+  0.2+
030327 599  0.1-  0.1-    030402 938  0.3-  0.7-    030406 170  0.1+  1.5+
030327 300  0.4+  1.1-    030402 938  0.1+  0.1+    030406 170  0.5+  0.7+
030327 300  0.0   0.1+    030402 938  0.4+  1.1+    030406 170  0.2+  0.1-
030327 300  0.2+  0.9-    030402 938  0.4+  0.0     030407 670  1.2+  0.2-
030327 300  0.4+  1.6+    030402 H72  0.5+  0.1-    030407 670  0.6+  0.2-
030327 300  0.6-  0.1-    030402 H72  1.2+  0.0     030407 670  1.1+  0.7-
030327 300  1.0-  1.0+    030402 H72  0.4+  0.1+    030407 333  0.4-  0.7+
030328 J95  0.4-  0.7-    030402 H72  1.2+  0.3+    030407 333  0.2-  1.1+
030328 J95  0.3+  0.1+    030402 H72  1.1+  0.3+    030407 333  0.5-  0.9+
030328 J95  0.7-  0.2+    030402 H72  0.0   0.1+    030407 333  0.1+  0.7+
030329 246  0.3+  0.2+    030402 H72  1.3+  0.1-    030407 333  0.3+  0.7+
030329 246  0.4+  0.0     030402 170  0.8+  0.7+    030407 333  0.8+  2.0-
030329 246  0.1-  0.1+    030402 170  0.8+  0.3-    030407 333  0.1-  0.0
030329 246  0.4+  0.1+    030402 170  0.6+  0.8+    030407 333  0.7+  0.5+
030329 246  0.6+  0.3+    030402 170  0.6+  0.6-    030407 428  0.4+  0.3-
030329 246  0.5+  0.2+    030402 170  0.6+  0.4-    030407 428  0.2-  0.2-
030329 246  0.5+  0.3+    030402 170  1.2+  0.5+    030407 428  0.2-  0.0
030329 J87  0.2+  0.1-    030402 170  0.7+  0.0     030409 333  0.5+  0.5-
030329 J87  0.5+  0.2+    030402 170  1.0+  0.1-    030409 333  0.7-  1.7+
030329 J87  0.4-  0.0     030403 H72  0.6-  0.6-    030409 333  0.5+  0.3-
030329 860  1.0-  1.4-    030403 H72  0.4-  0.5-    030409 333 (2.3+  0.4+)
030329 860  0.1+  0.5+    030403 H72  0.6-  0.2-    030409 428  0.4+  0.1+
030329 860  0.1-  0.3-    030403 H72 (4.9-  1.4-)   030409 428  0.1+  0.3-
030329 H72 (2.8-  1.3-)   030403 H72  0.8-  0.8-    030409 428  0.0   0.1-
030329 H72 (3.5-  1.4-)   030403 H72  1.9-  0.4-    030409 428  0.3+  0.2-
030329 H72 (2.8-  1.5-)   030403 379  1.0+  0.7-    030409 E14  1.1-  0.2-
030329 H72 (3.9-  1.2-)   030403 379  0.7+  0.5+    030409 E14  0.2-  0.4+
030329 H72 (3.9-  1.5-)   030403 379  0.3+  0.5-    030409 E14 (2.6+  0.7-)
030329 699  0.3-  0.4-    030403 379  0.6-  0.2-    041231 649  0.5-  0.6-
030329 699  0.4+  0.1-    030403 379  0.7+  0.9-    041231 649  0.3+  0.1-
030329 699  0.0   0.4-    030403 379  0.3+  0.4-    041231 649  0.2-  0.1+
030329 699  0.1-  0.4-    030403 379  0.3+  0.0     041231 649  0.2-  0.5+
030329 428  0.2+  0.5+    030403 379  0.1+  0.8-    041231 649  0.3+  0.3-
030329 428  0.4+  0.4+    030403 379  0.3-  0.3-    041231 649  0.6-  0.2+
030329 428  0.4+  0.2+    030403 379  0.5-  0.3+    050109 649  0.9+  0.5+
030329 428  0.2-  0.3+    030403 379  0.4+  0.1+    050109 649  0.3-  0.7+
030329 355  0.3-  0.1-    030403 379  0.9+  0.4+    050109 649  0.2+  0.7-
030329 355  0.2+  0.1+    030403 428  0.4-  0.0

